Regional Weather Roundup
Issued by NWS

Home | Current Version | Previous Version | Graphics & Text | Print | Product List | Glossary On
Versions: 1 2 3 4 5 6 7 8 9 10 11 12 13 14 15 16 17 18 19 20 21 22 23 24 25 26 27 28 29 30 31 32 33 34 35 36 37 38 39 40 41 42 43 44 45 46 47 48 49 50
000
ASUS45 KABQ 051310
RWRNM
NEW MEXICO REGIONAL WEATHER ROUNDUP
NATIONAL WEATHER SERVICE ALBUQUERQUE NM
700 AM MDT SAT SEP 05 2015

NOTE: "FAIR" MEANS FEW OR NO CLOUDS BELOW 12,000 FEET AGL WITH NO
       SIGNIFICANT WEATHER OR OBSTRUCTIONS TO VISION.

      THIS PRODUCT IS RELEASED AS TWO VERSIONS.  ONE VERSION NEAR
      THE TOP OF THE HOUR CONTAINING PRELIMINARY DATA FROM ALBUQUERQUE
      AND OTHER STATIONS.  A FINAL VERSION WITH ADDITIONAL DATA IS
      ISSUED ABOUT 10 MINUTES AFTER THE HOUR.

NMZ501-503-504-510>518-051400-
NORTHWEST PLATEAU/NORTHCENTRAL MOUNTAINS

CITY           SKY/WX    TMP DP  RH WIND       PRES   REMARKS
FARMINGTON     LGT RAIN  60  58  92 E7        30.14R
LOS ALAMOS     CLOUDY    56  54  90 S6        30.27R
SANTA FE       CLOUDY    57  55  93 CALM      30.21S
TAOS           CLOUDY    54  46  76 CALM      30.28R
ANGEL FIRE     FAIR      52  48  87 S5        30.30R

$$
NMZ402-403-502-505>509-051400-
WESTCENTRAL MOUNTAINS/SOUTHWEST MOUNTAINS

CITY           SKY/WX    TMP DP  RH WIND       PRES   REMARKS
GALLUP         CLOUDY    57  54  89 CALM      30.20R
GRANTS         CLOUDY    56  56  99 CALM      30.24R
SILVER CITY      N/A     59  57  94 N7        30.17R

$$
NMZ407-409-411-412-051400-
SOUTHERN DESERTS

CITY           SKY/WX    TMP DP  RH WIND       PRES   REMARKS
LORDSBURG      FAIR      63  61  94 S10       30.09R
DEMING         MOCLDY    62  60  93 W3        30.10R
LAS CRUCES     MOCLDY    65  56  72 NW5       30.09R
HOLLOMAN AFB   CLOUDY    67  55  66 W7        30.04R
ALAMOGORDO     MOCLDY    68  55  64 SW5       30.06R
T OR C         PTCLDY    62  56  80 NW7       30.12R

$$
NMZ519>523-051400-
CENTRAL VALLEYS/CENTRAL HIGHLANDS

CITY           SKY/WX    TMP DP  RH WIND       PRES   REMARKS
ALBUQUERQUE    CLOUDY    65  59  81 N3        30.16S
DOUBLE EAGLE   MOCLDY    57  57 100 N3        30.19S
MORIARTY ARPT  FAIR      54  51  92 CALM      30.22S
CLINES CORNERS PTCLDY    54  51  90 W6        30.24R
BELEN          DRIZZLE   62  60  94 CALM      30.15S
SOCORRO        FAIR      63  59  87 NW3       30.13R

$$
NMZ524>526-539-540-051400-
SOUTHCENTRAL MOUNTAINS

CITY           SKY/WX    TMP DP  RH WIND       PRES   REMARKS
RUIDOSO        PTCLDY    57  52  82 S5        30.26S

$$
NMZ527>531-051400-
NORTHEAST HIGHLANDS/NORTHEAST PLAINS

CITY           SKY/WX    TMP DP  RH WIND       PRES   REMARKS
LAS VEGAS      PTCLDY    55  49  80 S9        30.22R
RATON          CLOUDY    56  50  80 W5        30.16R
CLAYTON        PTCLDY    65  53  65 SW7       30.10R

$$
NMZ532>537-051400-
EASTCENTRAL PLAINS

CITY           SKY/WX    TMP DP  RH WIND       PRES   REMARKS
TUCUMCARI      PTCLDY    61  54  77 SW7       30.06R
CANNON AFB     PTCLDY    63  53  71 S2        30.10R
CLOVIS AIRPORT CLEAR     61  52  72 SW7       30.11R

$$
NMZ028-029-538-051400-
SOUTHEAST PLAINS

CITY           SKY/WX    TMP DP  RH WIND       PRES   REMARKS
ROSWELL        CLEAR     66  55  67 CALM      30.05R
ARTESIA        CLEAR     66  54  63 CALM      30.06R
CARLSBAD       CLEAR     69  53  56 S5        30.02R
HOBBS          CLEAR     66  57  72 CALM      30.08R


$$


USA.gov is the U.S. government's official web portal to all federal, state and local government web resources and services.